Regional Weather Roundup
Issued by NWS

Home | Current Version | Previous Version | Graphics & Text | Print | Product List | Glossary On
Versions: 1 2 3 4 5 6 7 8 9 10 11 12 13 14 15 16 17 18 19 20 21 22 23 24 25 26 27 28 29 30 31 32 33 34 35 36 37 38 39 40 41 42 43 44 45 46 47 48 49 50
000
ASUS43 KBIS 292310
RWRND

NORTH DAKOTA REGIONAL WEATHER ROUNDUP
NATIONAL WEATHER SERVICE BISMARCK ND
600 PM CDT FRI MAY 29 2015

NOTE: "FAIR" INDICATES FEW OR NO CLOUDS BELOW 12,000 FEET WITH NO
SIGNIFICANT WEATHER AND/OR OBSTRUCTIONS TO VISIBILITY.


NDZ001>003-009>011-017-300000-
NORTHWEST NORTH DAKOTA

CITY           SKY/WX    TMP DP  RH WIND       PRES   REMARKS
WILLISTON      SUNNY     60  32  34 MISG      30.29S
MINOT          SUNNY     57  32  38 NW14G20   30.27R
MINOT AFB      SUNNY     57  33  39 N9G17     30.26S
$$

NDZ018>021-031>035-040>046-300000-
SOUTHWEST NORTH DAKOTA

CITY           SKY/WX    TMP DP  RH WIND       PRES   REMARKS
BISMARCK       SUNNY     57  35  43 N14       30.26R
DICKINSON        N/A     56  35  45 VRB5      30.26S
GARRISON         N/A     56  33  42 NE8       30.27S
HETTINGER ARPT MOSUNNY   54  36  50 N7        30.28S
$$

NDZ004>008-012>016-024-026-027-054-300000-
NORTHEAST NORTH DAKOTA

CITY           SKY/WX    TMP DP  RH WIND       PRES   REMARKS
GRAND FORKS    MOSUNNY   54  36  50 N24G31    30.19R
GRND FRKS AFB  MOSUNNY   55  35  45 N20G30    30.19S
DEVILS LAKE    SUNNY     55  30  38 N16G24    30.23R
$$

NDZ022-023-025-028>030-036>039-047>053-300000-
SOUTHEAST NORTH DAKOTA

CITY           SKY/WX    TMP DP  RH WIND       PRES   REMARKS
FARGO          PTSUNNY   55  41  59 N22G32    30.15R
JAMESTOWN      MOSUNNY   57  38  48 N20G29    30.19R
$$




USA.gov is the U.S. government's official web portal to all federal, state and local government web resources and services.